| time (UTC) | temp F | wind direction | speed knots | gust knots | rain 1hr in | rain 24hr in | rain mn in | humidity % | barometer mb |
| 20260906225308 | 97 | 138 | 7.0 | 13.0 | 0.00 | 0.00 | 0.00 | 41 | 1009.2 |
| 20260906224808 | 98 | 82 | 5.2 | 11.3 | 0.00 | 0.00 | 0.00 | 43 | 1009.3 |
| 20260906223808 | 98 | 105 | 5.2 | 10.4 | 0.00 | 0.00 | 0.00 | 42 | 1009.4 |
| 20260906212808 | 99 | 110 | 6.1 | 10.4 | 0.00 | 0.00 | 0.00 | 41 | 1009.8 |
| 20260906205308 | 99 | 127 | 7.8 | 11.3 | 0.00 | 0.00 | 0.00 | 41 | 1010.5 |
| 20260906204807 | 98 | 120 | 6.1 | 13.0 | 0.00 | 0.00 | 0.00 | 44 | 1010.5 |
| 20260906203807 | 98 | 108 | 5.2 | 11.3 | 0.00 | 0.00 | 0.00 | 44 | 1010.5 |
| 20260906203308 | 98 | 87 | 5.2 | 7.8 | 0.00 | 0.00 | 0.00 | 44 | 1010.5 |
| 20260906202807 | 98 | 98 | 7.8 | 13.9 | 0.00 | 0.00 | 0.00 | 44 | 1010.7 |
| 20260906202308 | 98 | 98 | 6.1 | 12.2 | 0.00 | 0.00 | 0.00 | 45 | 1010.7 |
| 20260906200808 | 98 | 85 | 3.5 | 10.4 | 0.00 | 0.00 | 0.00 | 45 | 1010.8 |
| 20260906191808 | 98 | 93 | 6.1 | 13.9 | 0.00 | 0.00 | 0.00 | 46 | 1011.3 |
| 20260906191308 | 98 | 134 | 7.0 | 11.3 | 0.00 | 0.00 | 0.00 | 46 | 1011.3 |
| 20260906190808 | 98 | 113 | 6.1 | 10.4 | 0.00 | 0.00 | 0.00 | 47 | 1011.6 |
| 20260906185807 | 97 | 143 | 7.8 | 13.9 | 0.00 | 0.00 | 0.00 | 48 | 1011.6 |
| 20260906184807 | 96 | 167 | 6.1 | 13.0 | 0.00 | 0.00 | 0.00 | 49 | 1011.6 |
| 20260906180307 | 95 | 79 | 3.5 | 11.3 | 0.00 | 0.00 | 0.00 | 51 | 1012.4 |
| 20260906175807 | 95 | 76 | 6.1 | 11.3 | 0.00 | 0.00 | 0.00 | 50 | 1012.4 |
| 20260906175307 | 95 | 98 | 5.2 | 10.4 | 0.00 | 0.00 | 0.00 | 49 | 1012.4 |
| 20260906174807 | 96 | 134 | 5.2 | 14.8 | 0.00 | 0.00 | 0.00 | 50 | 1012.4 |
| 20260906173807 | 96 | 110 | 5.2 | 13.0 | 0.00 | 0.00 | 0.00 | 51 | 1012.5 |
| 20260906172306 | 95 | 97 | 4.3 | 10.4 | 0.00 | 0.00 | 0.00 | 51 | 1012.7 |
| 20260906171307 | 95 | 9 | 4.3 | 8.7 | 0.00 | 0.00 | 0.00 | 52 | 1012.9 |
| 20260906170806 | 95 | 119 | 1.7 | 10.4 | 0.00 | 0.00 | 0.00 | 53 | 1012.9 |
| 20260906170307 | 94 | 119 | 6.1 | 10.4 | 0.00 | 0.00 | 0.00 | 53 | 1012.9 |
| 20260906165807 | 94 | 94 | 5.2 | 12.2 | 0.00 | 0.00 | 0.00 | 53 | 1012.9 |
| 20260906165307 | 94 | 53 | 7.8 | 12.2 | 0.00 | 0.00 | 0.00 | 53 | 1012.9 |
| 20260906164807 | 94 | 111 | 6.1 | 10.4 | 0.00 | 0.00 | 0.00 | 54 | 1012.9 |
| 20260906163307 | 94 | 110 | 5.2 | 10.4 | 0.00 | 0.00 | 0.00 | 56 | 1013.0 |
| 20260906162807 | 93 | 149 | 6.1 | 11.3 | 0.00 | 0.00 | 0.00 | 55 | 1013.0 |
| 20260906161807 | 93 | 138 | 2.6 | 7.0 | 0.00 | 0.00 | 0.00 | 59 | 1012.9 |
| 20260906160807 | 92 | 117 | 3.5 | 10.4 | 0.00 | 0.00 | 0.00 | 59 | 1012.9 |
| 20260906155307 | 91 | 111 | 3.5 | 7.8 | 0.00 | 0.00 | 0.00 | 62 | 1012.8 |
| 20260906154306 | 90 | 81 | 4.3 | 8.7 | 0.00 | 0.00 | 0.00 | 63 | 1012.8 |
| 20260906153807 | 90 | 83 | 5.2 | 8.7 | 0.00 | 0.00 | 0.00 | 64 | 1012.8 |
| 20260906153306 | 90 | 84 | 3.5 | 7.0 | 0.00 | 0.00 | 0.00 | 66 | 1012.8 |
| 20260906152807 | 90 | 74 | 4.3 | 7.0 | 0.00 | 0.00 | 0.00 | 66 | 1012.5 |
| 20260906151306 | 88 | 106 | 1.7 | 6.1 | 0.00 | 0.00 | 0.00 | 70 | 1012.5 |
| 20260906150307 | 87 | 134 | 2.6 | 6.1 | 0.00 | 0.00 | 0.00 | 73 | 1012.5 |
| 20260906145807 | 86 | 96 | 1.7 | 5.2 | 0.00 | 0.00 | 0.00 | 74 | 1012.6 |
| 20260906144307 | 85 | 80 | 2.6 | 4.3 | 0.00 | 0.00 | 0.00 | 76 | 1012.8 |
| 20260906143307 | 84 | 118 | 2.6 | 5.2 | 0.00 | 0.00 | 0.00 | 77 | 1012.8 |
| 20260906142806 | 84 | 118 | 2.6 | 5.2 | 0.00 | 0.00 | 0.00 | 79 | 1012.8 |
| 20260906142307 | 83 | 116 | 1.7 | 2.6 | 0.00 | 0.00 | 0.00 | 79 | 1012.8 |
| 20260906141806 | 83 | 116 | 1.7 | 2.6 | 0.00 | 0.00 | 0.00 | 80 | 1012.7 |
| 20260906141306 | 83 | 116 | 0.9 | 4.3 | 0.00 | 0.00 | 0.00 | 81 | 1012.7 |
| 20260906140806 | 82 | 116 | 2.6 | 2.6 | 0.00 | 0.00 | 0.00 | 82 | 1012.7 |
| 20260906140306 | 82 | 116 | 1.7 | 4.3 | 0.00 | 0.00 | 0.00 | 83 | 1012.5 |
| 20260906135807 | 81 | 117 | 3.5 | 4.3 | 0.00 | 0.00 | 0.00 | 83 | 1012.5 |
| 20260906133807 | 80 | 96 | 2.6 | 4.3 | 0.00 | 0.00 | 0.00 | 86 | 1012.6 |
| 20260906133306 | 80 | 92 | 2.6 | 4.3 | 0.00 | 0.00 | 0.00 | 86 | 1012.6 |
| 20260906132806 | 80 | 90 | 2.6 | 4.3 | 0.00 | 0.00 | 0.00 | 87 | 1012.6 |
| 20260906132307 | 79 | 88 | 2.6 | 4.3 | 0.00 | 0.00 | 0.00 | 87 | 1012.7 |
| 20260906131807 | 79 | 155 | 1.7 | 4.3 | 0.00 | 0.00 | 0.00 | 88 | 1012.7 |
| 20260906124806 | 78 | 157 | 1.7 | 4.3 | 0.00 | 0.00 | 0.00 | 89 | 1012.4 |
| 20260906124306 | 78 | 156 | 1.7 | 2.6 | 0.00 | 0.00 | 0.00 | 89 | 1012.4 |
| 20260906123806 | 78 | 157 | 0.0 | 0.9 | 0.00 | 0.00 | 0.00 | 89 | 1012.4 |
| 20260906123306 | 78 | 157 | 0.0 | 0.9 | 0.00 | 0.00 | 0.00 | 89 | 1012.2 |
| 20260906122806 | 78 | 157 | 0.9 | 1.7 | 0.00 | 0.00 | 0.00 | 89 | 1012.3 |
| 20260906122306 | 78 | 149 | 0.9 | 2.6 | 0.00 | 0.00 | 0.00 | 88 | 1012.1 |
| 20260906120806 | 78 | 157 | 0.0 | 0.9 | 0.00 | 0.00 | 0.00 | 87 | 1012.0 |
| 20260906120306 | 78 | 157 | 0.0 | 0.9 | 0.00 | 0.00 | 0.00 | 87 | 1012.0 |
| 20260906115806 | 78 | 157 | 0.0 | 0.9 | 0.00 | 0.00 | 0.00 | 87 | 1011.9 |
| 20260906112307 | 78 | 157 | 1.7 | 4.3 | 0.00 | 0.00 | 0.00 | 86 | 1011.7 |
| 20260906111806 | 78 | 156 | 1.7 | 4.3 | 0.00 | 0.00 | 0.00 | 86 | 1011.7 |
| 20260906110305 | 79 | 161 | 0.9 | 2.6 | 0.00 | 0.00 | 0.00 | 86 | 1011.6 |
| 20260906105806 | 79 | 161 | 2.6 | 4.3 | 0.00 | 0.00 | 0.00 | 86 | 1011.5 |
| 20260906105306 | 79 | 161 | 1.7 | 2.6 | 0.00 | 0.00 | 0.00 | 86 | 1011.5 |
| 20260906103806 | 79 | 162 | 1.7 | 2.6 | 0.00 | 0.00 | 0.00 | 86 | 1011.5 |
| 20260906103306 | 79 | 162 | 1.7 | 2.6 | 0.00 | 0.00 | 0.00 | 86 | 1011.4 |
| 20260906102805 | 79 | 162 | 0.0 | 1.7 | 0.00 | 0.00 | 0.00 | 85 | 1011.4 |
| 20260906101806 | 79 | 162 | 0.0 | 1.7 | 0.00 | 0.00 | 0.00 | 85 | 1011.4 |
| 20260906100806 | 79 | 162 | 0.9 | 1.7 | 0.00 | 0.00 | 0.00 | 85 | 1011.4 |
| 20260906100306 | 79 | 162 | 0.9 | 2.6 | 0.00 | 0.00 | 0.00 | 85 | 1011.4 |
| 20260906095805 | 79 | 162 | 0.9 | 1.7 | 0.00 | 0.00 | 0.00 | 84 | 1011.4 |
| 20260906095306 | 79 | 162 | 0.0 | 0.0 | 0.00 | 0.00 | 0.00 | 83 | 1011.0 |
| 20260906094806 | 79 | 162 | 0.0 | 0.0 | 0.00 | 0.00 | 0.00 | 83 | 1011.0 |
| 20260906092306 | 80 | 162 | 0.0 | 0.9 | 0.00 | 0.00 | 0.00 | 82 | 1010.9 |
| 20260906091806 | 80 | 162 | 0.0 | 0.9 | 0.00 | 0.00 | 0.00 | 82 | 1010.9 |
| 20260906091306 | 80 | 162 | 0.9 | 2.6 | 0.00 | 0.00 | 0.00 | 82 | 1010.8 |
| 20260906090806 | 80 | 162 | 0.9 | 2.6 | 0.00 | 0.00 | 0.00 | 82 | 1010.7 |
| 20260906083805 | 81 | 138 | 4.3 | 6.1 | 0.00 | 0.00 | 0.00 | 81 | 1010.7 |
| 20260906083305 | 81 | 183 | 2.6 | 6.1 | 0.00 | 0.00 | 0.00 | 80 | 1010.7 |
| 20260906082805 | 81 | 162 | 4.3 | 6.1 | 0.00 | 0.00 | 0.00 | 80 | 1010.7 |
| 20260906082306 | 81 | 134 | 2.6 | 5.2 | 0.00 | 0.00 | 0.00 | 80 | 1010.7 |
| 20260906081805 | 81 | 152 | 3.5 | 5.2 | 0.00 | 0.00 | 0.00 | 80 | 1010.7 |
| 20260906080305 | 81 | 155 | 2.6 | 4.3 | 0.00 | 0.00 | 0.00 | 79 | 1010.9 |
| 20260906075805 | 81 | 154 | 2.6 | 5.2 | 0.00 | 0.00 | 0.00 | 79 | 1010.7 |
| 20260906075306 | 82 | 154 | 4.3 | 6.1 | 0.00 | 0.00 | 0.00 | 79 | 1010.7 |
| 20260906074806 | 82 | 154 | 2.6 | 4.3 | 0.00 | 0.00 | 0.00 | 78 | 1010.7 |
| 20260906073805 | 82 | 156 | 4.3 | 7.0 | 0.00 | 0.00 | 0.00 | 78 | 1010.7 |
| 20260906071305 | 82 | 200 | 2.6 | 5.2 | 0.00 | 0.00 | 0.00 | 76 | 1011.1 |
| 20260906070305 | 83 | 185 | 2.6 | 5.2 | 0.00 | 0.00 | 0.00 | 75 | 1011.1 |
| 20260906065805 | 83 | 109 | 4.3 | 8.7 | 0.00 | 0.00 | 0.00 | 75 | 1011.0 |
| 20260906065306 | 83 | 156 | 5.2 | 7.8 | 0.00 | 0.00 | 0.00 | 75 | 1011.0 |
| 20260906064805 | 83 | 150 | 3.5 | 7.0 | 0.00 | 0.00 | 0.00 | 74 | 1011.1 |
| 20260906064305 | 83 | 168 | 3.5 | 7.0 | 0.00 | 0.00 | 0.00 | 74 | 1011.2 |
| 20260906063305 | 83 | 170 | 4.3 | 7.0 | 0.00 | 0.00 | 0.00 | 73 | 1011.2 |
| 20260906060805 | 84 | 153 | 4.3 | 7.8 | 0.00 | 0.00 | 0.00 | 71 | 1011.2 |
| 20260906055804 | 84 | 157 | 4.3 | 5.2 | 0.00 | 0.00 | 0.00 | 70 | 1011.2 |
| 20260906054805 | 84 | 164 | 3.5 | 6.1 | 0.00 | 0.00 | 0.00 | 70 | 1011.2 |
| 20260906053805 | 84 | 148 | 4.3 | 7.0 | 0.00 | 0.00 | 0.00 | 70 | 1011.2 |
| 20260906052805 | 84 | 175 | 4.3 | 6.1 | 0.00 | 0.00 | 0.00 | 70 | 1010.9 |
| 20260906052306 | 84 | 178 | 2.6 | 5.2 | 0.00 | 0.00 | 0.00 | 70 | 1010.9 |
| 20260906051304 | 85 | 172 | 1.7 | 4.3 | 0.00 | 0.00 | 0.00 | 69 | 1011.1 |
| 20260906050836 | 85 | 173 | 1.7 | 4.3 | 0.00 | 0.00 | 0.00 | 69 | 1011.1 |
| 20260906045804 | 85 | 173 | 2.6 | 5.2 | 0.00 | 0.00 | 0.00 | 69 | 1011.1 |
| 20260906045306 | 85 | 173 | 2.6 | 5.2 | 0.00 | 0.00 | 0.00 | 69 | 1011.1 |
| 20260906043304 | 85 | 145 | 4.3 | 7.8 | 0.00 | 0.00 | 0.00 | 68 | 1011.1 |
| 20260906042805 | 85 | 113 | 5.2 | 7.8 | 0.00 | 0.00 | 0.00 | 68 | 1011.0 |
| 20260906042306 | 85 | 127 | 2.6 | 6.1 | 0.00 | 0.00 | 0.00 | 68 | 1011.0 |
| 20260906041805 | 86 | 153 | 2.6 | 7.0 | 0.00 | 0.00 | 0.00 | 68 | 1011.0 |
| 20260906040804 | 86 | 137 | 5.2 | 7.8 | 0.00 | 0.00 | 0.00 | 67 | 1011.0 |
| 20260906035804 | 86 | 154 | 5.2 | 7.8 | 0.00 | 0.00 | 0.00 | 67 | 1011.1 |
| 20260906031804 | 87 | 134 | 4.3 | 8.7 | 0.00 | 0.00 | 0.00 | 65 | 1011.1 |
| 20260906030805 | 87 | 149 | 6.1 | 11.3 | 0.00 | 0.00 | 0.00 | 64 | 1011.0 |
| 20260906025805 | 87 | 121 | 7.0 | 15.6 | 0.00 | 0.00 | 0.00 | 64 | 1011.1 |
| 20260906024304 | 87 | 78 | 5.2 | 13.0 | 0.00 | 0.00 | 0.00 | 63 | 1010.6 |
| 20260906023304 | 88 | 80 | 5.2 | 10.4 | 0.00 | 0.00 | 0.00 | 62 | 1010.6 |
| 20260906022804 | 88 | 67 | 6.1 | 13.0 | 0.00 | 0.00 | 0.00 | 62 | 1010.7 |
| 20260906020804 | 88 | 122 | 6.1 | 10.4 | 0.00 | 0.00 | 0.00 | 61 | 1010.5 |
| 20260906015804 | 88 | 48 | 6.1 | 10.4 | 0.00 | 0.00 | 0.00 | 61 | 1010.2 |
| 20260906014805 | 89 | 128 | 6.1 | 10.4 | 0.00 | 0.00 | 0.00 | 60 | 1010.2 |
| 20260906013804 | 89 | 131 | 3.5 | 12.2 | 0.00 | 0.00 | 0.00 | 59 | 1010.2 |
| 20260906013304 | 90 | 11 | 8.7 | 15.6 | 0.00 | 0.00 | 0.00 | 58 | 1010.0 |
| 20260906012306 | 91 | 128 | 7.8 | 12.2 | 0.00 | 0.00 | 0.00 | 55 | 1009.6 |
| 20260906011804 | 92 | 57 | 7.8 | 12.2 | 0.00 | 0.00 | 0.00 | 54 | 1009.6 |
| 20260906010804 | 93 | 95 | 5.2 | 13.0 | 0.00 | 0.00 | 0.00 | 53 | 1009.5 |
| 20260906005306 | 94 | 17 | 7.0 | 11.3 | 0.00 | 0.00 | 0.00 | 50 | 1009.3 |
| 20260906004804 | 95 | 39 | 8.7 | 15.6 | 0.00 | 0.00 | 0.00 | 49 | 1009.1 |
| 20260906004305 | 95 | 136 | 3.5 | 7.0 | 0.00 | 0.00 | 0.00 | 47 | 1009.1 |
| 20260906002804 | 96 | 40 | 4.3 | 8.7 | 0.00 | 0.00 | 0.00 | 45 | 1009.1 |
| 20260906000808 | 96 | 140 | 6.1 | 8.7 | 0.00 | 0.00 | 0.00 | 44 | 1009.1 |
| 20260906000308 | 97 | 60 | 5.2 | 10.4 | 0.00 | 0.00 | 0.00 | 44 | 1009.0 |
| 20260905234808 | 97 | 94 | 5.2 | 10.4 | 0.00 | 0.00 | 0.00 | 44 | 1009.0 |
| 20260905234308 | 98 | 97 | 5.2 | 8.7 | 0.00 | 0.00 | 0.00 | 43 | 1009.0 |
| 20260905233808 | 98 | 71 | 4.3 | 10.4 | 0.00 | 0.00 | 0.00 | 43 | 1008.9 |
| 20260905233308 | 98 | 138 | 5.2 | 10.4 | 0.00 | 0.00 | 0.00 | 43 | 1009.0 |
| 20260905232808 | 98 | 133 | 4.3 | 7.8 | 0.00 | 0.00 | 0.00 | 43 | 1009.1 |
| 20260905232308 | 98 | 82 | 4.3 | 7.8 | 0.00 | 0.00 | 0.00 | 42 | 1009.1 |
| 20260905231807 | 98 | 96 | 4.3 | 8.7 | 0.00 | 0.00 | 0.00 | 42 | 1009.0 |
| 20260905231308 | 99 | 119 | 2.6 | 7.0 | 0.00 | 0.00 | 0.00 | 42 | 1009.0 |
| 20260905230308 | 99 | 124 | 5.2 | 7.8 | 0.00 | 0.00 | 0.00 | 41 | 1009.0 |